Lid_Strength_Index
-1 -0 -0 0 -1 -1 -1 -1 -1 -1 -1 -1 -1 -0 1 1 1 3 5 4 3 -1 1 4 4 4 3 4 3 3 8 10 9 9 8 5 6 5 5 6 6 6 6 6 4
-1 -1 -1 -0 -0 -1 -0 -0 -0 -1 -1 -1 -1 0 -0 2 3 5 1 1 0 -1 5 5 6 5 5 5 4 5 8 8 6 6 7 6 6 5 6 6 6 7 7 5 4
-1 -1 -0 -0 -0 -0 -0 -0 0 -0 -0 -1 -1 -0 1 2 7 7 1 -0 -0 0 4 5 5 5 5 5 5 6 8 6 6 5 5 6 6 5 6 7 5 6 7 5 5
-2 -1 -0 -0 -1 -0 0 0 0 0 -0 -1 -1 -1 0 3 12 4 1 0 -0 2 5 6 7 7 6 7 6 7 5 5 6 5 6 6 5 7 6 5 5 4 5 5 5
-1 -1 -1 -1 -0 -0 1 1 1 0 0 -1 -1 0 1 6 7 4 1 1 2 4 6 7 8 7 7 7 7 7 6 5 5 6 5 5 6 6 6 5 5 5 5 5 5
-1 -1 -1 -1 -0 -0 0 1 1 0 0 -1 -1 1 3 7 4 3 3 4 4 5 7 6 7 6 6 7 8 6 6 6 5 6 5 7 6 6 5 4 5 6 6 5 5
-2 -1 -1 -1 -1 -0 -0 0 1 1 0 -1 -1 1 4 5 3 3 5 4 4 5 7 6 5 7 5 8 6 6 7 6 6 6 7 6 8 8 4 5 5 6 6 6 5
-2 -2 -1 -2 -2 -1 -0 -0 0 0 0 -1 -1 2 5 2 3 5 5 5 4 4 6 5 5 6 6 5 7 8 7 10 7 6 6 7 10 6 4 6 6 6 6 6 6
-2 -2 -2 -2 -2 -1 -1 -1 -0 0 0 -1 1 4 6 4 6 5 4 6 5 5 5 5 5 7 7 8 10 9 11 10 9 6 7 8 9 6 6 6 6 6 6 6 7
-1 -1 -2 -1 -1 -2 -1 -0 -0 0 -0 -0 1 6 4 6 6 5 4 5 7 6 7 7 7 9 9 9 14 12 11 10 10 8 8 9 9 7 7 6 6 5 5 6 6
-1 -2 -2 -2 -2 -1 -1 1 4 5 3 5 5 5 7 5 4 5 4 6 7 8 11 9 11 12 11 9 8 9 10 10 9 9 9 9 8 7 6 7 6 6 5 5 6
-1 -1 -2 -2 -2 -1 -1 3 3 2 7 3 3 4 3 4 8 6 4 8 9 12 9 10 12 10 9 9 8 9 10 10 10 10 10 9 10 7 6 6 6 5 5 5 5
-1 -1 -1 -2 -2 -0 2 2 -0 1 7 6 4 4 4 3 6 7 5 7 10 12 11 12 11 9 10 11 10 9 10 10 10 10 10 11 11 10 8 7 6 6 4 4 5
-1 -1 -2 -2 1 1 3 -0 -1 0 10 10 7 5 4 4 7 4 5 7 9 12 11 11 9 11 11 11 10 11 8 9 11 11 14 12 15 11 10 9 8 7 7 6 5
-1 -1 -2 -2 1 4 2 -1 -0 2 18 9 7 2 3 6 7 8 4 7 10 11 12 12 12 11 12 12 10 11 7 9 10 11 12 13 14 11 11 11 10 9 9 8 7
-1 -1 -1 -0 1 1 -1 0 2 13 18 10 7 8 8 7 7 7 7 6 7 10 12 12 10 9 10 10 9 10 9 9 10 11 15 13 13 13 11 11 11 10 10 9 9
-1 -1 -1 -1 3 -1 0 3 13 17 9 12 11 9 9 9 8 9 10 11 12 14 15 14 13 10 10 11 10 10 11 15 16 16 17 15 15 13 11 11 11 11 10 10 9
-1 -1 -1 -0 -1 -0 3 9 17 12 11 8 9 9 11 9 9 9 10 12 10 10 12 16 17 12 10 10 12 12 12 14 18 18 16 16 17 13 12 11 11 10 10 9 9
0 1 1 0 -1 0 7 14 14 10 9 10 9 12 12 9 9 9 10 11 10 10 12 15 16 11 11 10 10 12 14 11 15 17 16 15 13 12 11 11 11 11 10 10 9
3 3 3 -0 -0 3 10 13 11 7 7 8 12 10 14 11 11 11 10 8 10 9 9 11 16 13 12 10 11 11 10 16 15 18 18 16 15 14 13 12 11 11 10 10 9
4 8 2 0 1 7 13 12 9 6 6 9 9 11 10 11 10 11 10 9 7 9 9 11 13 16 13 13 12 13 14 13 14 15 17 18 15 11 11 11 11 10 9 9 9
6 10 2 1 9 9 12 10 7 7 6 7 7 8 10 9 11 11 11 9 7 8 12 10 12 17 15 12 11 10 11 12 16 18 17 17 16 13 10 10 9 10 9 9 9
7 7 2 3 13 12 10 10 8 9 8 8 9 7 7 9 12 10 9 6 7 8 10 10 12 17 17 14 13 13 12 11 12 14 18 18 16 14 11 11 11 10 10 10 9
7 10 7 6 7 10 11 11 11 7 8 7 8 7 9 10 8 10 9 9 7 7 7 9 11 13 17 16 13 15 13 12 11 15 16 16 15 14 14 13 12 12 11 10 10
6 8 7 11 11 9 9 9 12 12 8 7 9 8 9 12 11 11 9 9 8 7 8 9 13 12 12 14 14 13 13 13 13 12 14 14 14 13 12 12 11 11 11 11 11
7 8 7 9 10 9 9 11 11 10 10 11 11 9 8 12 10 12 9 9 10 8 9 8 14 12 15 13 14 15 13 12 12 11 11 13 13 10 10 10 10 10 10 9 10
4 5 7 9 10 11 10 10 10 8 8 7 8 8 9 8 6 6 6 6 7 8 10 11 13 14 16 13 14 16 14 13 13 12 11 13 11 10 10 10 10 9 9 10 9